Weather History for VTSP - October, 2010

Change the Weather History Date:

Friday, October 15, 2010

  Actual Average Record
Temperature  
Mean Temperature 81 °F -  
Max Temperature 87 °F 88 °F 96 °F (2000)
Min Temperature 75 °F 76 °F 69 °F (1997)
Cooling Degree Days 16    
Growing Degree Days 31 (Base 50)    
Moisture  
Dew Point 74 °F    
Average Humidity 85    
Maximum Humidity 94    
Minimum Humidity 74    
Precipitation  
Precipitation 1.46 in 0.35 in - ()
Sea Level Pressure  
Sea Level Pressure 29.79 in    
Wind  
Wind Speed 5 mph ()    
Max Wind Speed 25 mph    
Max Gust Speed 47 mph    
Visibility 3.8 miles    
Events Rain    
Averages and records for this station are not official NWS values.
T = Trace of Precipitation, MM = Missing Value Source: Averaged Metar Reports

Daily Weather History Graph

Daily Weather History Graph

Search for Another Location

Airport or City:

Trip Planner

Search our weather history database for the weather conditions in past years. The results will help you decide how hot, cold, wet, or windy it might be!

Date:

Astronomy

Oct. 15, 2010 Rise Set
Actual Time 6:14 AM ICT 6:11 PM ICT
Civil Twilight 5:52 AM ICT 6:32 PM ICT
Nautical Twilight 5:28 AM ICT 6:56 PM ICT
Astronomical Twilight 5:04 AM ICT 7:20 PM ICT
Moon 12:53 PM ICT (10/15) 12:04 AM ICT (10/15)
Length of Visible Light 12h 39m
Length of Day
11h 56m
First Quarter, 53% of the Moon is Illuminated
Oct 15
First Quarter
Oct 23
Full
Oct 30
Last Quarter
Nov 6
New
Nov 13
First Quarter

Hourly Weather History & Observations

Time (ICT) Temp. Heat Index Dew Point Humidity Pressure Visibility Wind Dir Wind Speed Gust Speed Precip Events Conditions
12:00 AM 78.8 °F - 75.2 °F 89% 29.80 in 5.0 mi Variable 4.6 mph - N/A   Mostly Cloudy
12:30 AM 78.8 °F - 73.4 °F 83% 29.80 in 5.0 mi SW 3.5 mph - N/A   Mostly Cloudy
1:00 AM 81 °F - 76 °F 81% 29.74 in 6 mi Calm Calm - -   Partly Cloudy
1:00 AM 78.8 °F - 73.4 °F 83% 29.77 in 5.0 mi West 5.8 mph - N/A   Mostly Cloudy
1:30 AM 78.8 °F - 73.4 °F 83% 29.77 in 5.0 mi Variable 5.8 mph - N/A   Mostly Cloudy
2:00 AM 78.8 °F - 73.4 °F 83% 29.77 in 5.0 mi Variable 1.2 mph - N/A   Mostly Cloudy
2:30 AM 77.0 °F - 75.2 °F 94% 29.77 in 5.0 mi Variable 1.2 mph - N/A   Mostly Cloudy
3:00 AM 77.0 °F - 75.2 °F 94% 29.74 in 5.0 mi Calm Calm - N/A   Mostly Cloudy
3:30 AM 77.0 °F - 75.2 °F 94% 29.74 in 5.0 mi Calm Calm - N/A   Mostly Cloudy
4:00 AM 78.8 °F - 75.2 °F 89% 29.77 in 5.0 mi Calm Calm - N/A   Mostly Cloudy
4:30 AM 80.6 °F 86.2 °F 75.2 °F 84% 29.77 in 5.0 mi West 4.6 mph - N/A   Mostly Cloudy
5:00 AM 80.6 °F 86.2 °F 75.2 °F 84% 29.74 in 5.0 mi WSW 5.8 mph - N/A   Mostly Cloudy
6:00 AM 80.6 °F 86.2 °F 75.2 °F 84% 29.77 in 5.0 mi WSW 8.1 mph - N/A   Mostly Cloudy
6:30 AM 78.8 °F - 71.6 °F 78% 29.80 in 3.1 mi WSW 11.5 mph 31.1 mph N/A Rain Rain
7:00 AM 77 °F - 74 °F 89% 29.77 in 4 mi West 11.5 mph - - Rain Light Rain
7:00 AM 77.0 °F - 73.4 °F 89% 29.80 in 3.1 mi West 17.3 mph - N/A Rain Rain
7:30 AM 77.0 °F - 73.4 °F 89% 29.83 in 4.3 mi Variable 4.6 mph - N/A Rain Light Rain
8:00 AM 77.0 °F - 73.4 °F 89% 29.83 in 3.1 mi NNW 4.6 mph - N/A Rain Rain
8:30 AM 77.0 °F - 73.4 °F 89% 29.86 in 3.1 mi Variable 2.3 mph - N/A Rain Light Rain
9:00 AM 75.2 °F - 73.4 °F 94% 29.86 in 2.5 mi NE 4.6 mph - N/A Rain Rain
9:30 AM 77.0 °F - 73.4 °F 89% 29.86 in 4.3 mi NE 4.6 mph - N/A Rain Light Rain
10:00 AM 77.0 °F - 73.4 °F 89% 29.86 in 3.1 mi East 4.6 mph - N/A Rain Rain
10:30 AM 75.2 °F - 73.4 °F 94% 29.89 in 1.2 mi Variable 3.5 mph - N/A Rain Heavy Rain
11:00 AM 77.0 °F - 75.2 °F 94% 29.86 in 3.1 mi NNW 3.5 mph - N/A Rain Light Rain
11:30 AM 78.8 °F - 73.4 °F 83% 29.83 in 4.3 mi West 5.8 mph - N/A Rain Light Rain
12:00 PM 78.8 °F - 73.4 °F 83% 29.83 in 3.1 mi Calm Calm - N/A Rain Light Rain
12:30 PM 78.8 °F - 73.4 °F 83% 29.80 in 2.5 mi Variable 2.3 mph - N/A Rain Rain
1:00 PM 80 °F - 77 °F 89% 29.78 in 2 mi Calm Calm - - Rain Light Rain
1:00 PM 78.8 °F - 73.4 °F 83% 29.80 in 1.2 mi Variable 3.5 mph - N/A Rain Heavy Rain
1:30 PM 78.8 °F - 73.4 °F 83% 29.77 in 3.1 mi SSW 3.5 mph - N/A Rain Light Rain
2:00 PM 78.8 °F - 73.4 °F 83% 29.77 in 4.3 mi NNW 12.7 mph - N/A   Mostly Cloudy
2:30 PM 78.8 °F - 73.4 °F 83% 29.77 in 4.3 mi NW 5.8 mph - N/A   Overcast
3:00 PM 80.6 °F 86.2 °F 75.2 °F 84% 29.74 in 3.1 mi West 4.6 mph - N/A   Overcast
3:30 PM 78.8 °F - 73.4 °F 83% 29.74 in 3.1 mi North 11.5 mph - N/A   Overcast
4:00 PM 77.0 °F - 73.4 °F 89% 29.77 in 1.9 mi West 25.3 mph 47.2 mph N/A Rain Heavy Rain
4:30 PM 77.0 °F - 73.4 °F 89% 29.74 in 3.1 mi Variable 4.6 mph - N/A Rain Light Rain
5:00 PM 80.6 °F 86.2 °F 75.2 °F 84% 29.74 in 4.3 mi Variable 4.6 mph - N/A   Overcast
5:30 PM 80.6 °F 85.4 °F 73.4 °F 79% 29.74 in 4.3 mi WSW 11.5 mph - N/A   Overcast
6:00 PM 82.4 °F 89.5 °F 75.2 °F 79% 29.77 in 4.3 mi WSW 11.5 mph 23.0 mph N/A   Mostly Cloudy
6:30 PM 82.4 °F 89.5 °F 75.2 °F 79% 29.77 in 4.3 mi WSW 9.2 mph - N/A   Mostly Cloudy
7:00 PM 83 °F - 77 °F 76% 29.73 in 4 mi West 12.7 mph - - Rain Light Rain
7:00 PM 82.4 °F 89.5 °F 75.2 °F 79% 29.77 in 3.1 mi WSW 10.4 mph 21.9 mph N/A Rain Light Rain
7:30 PM 82.4 °F 89.5 °F 75.2 °F 79% 29.77 in 1.9 mi West 15.0 mph 26.5 mph N/A Rain Rain
8:00 PM 77.0 °F - 71.6 °F 83% 29.80 in 4.3 mi WNW 15.0 mph - N/A   Mostly Cloudy
8:30 PM 80.6 °F 85.4 °F 73.4 °F 79% 29.80 in 4.3 mi WNW 15.0 mph - N/A Rain Light Rain
9:00 PM 77.0 °F - 71.6 °F 83% 29.83 in 3.1 mi WSW 13.8 mph 29.9 mph N/A Rain Rain
9:30 PM 78.8 °F - 73.4 °F 83% 29.83 in 4.3 mi West 10.4 mph - N/A   Overcast
10:00 PM 80.6 °F 84.6 °F 71.6 °F 74% 29.83 in 4.3 mi West 12.7 mph - N/A   Overcast
10:30 PM 78.8 °F - 75.2 °F 89% 29.83 in 4.3 mi West 8.1 mph - N/A   Overcast
11:00 PM 80.6 °F 86.2 °F 75.2 °F 84% 29.83 in 4.3 mi WSW 6.9 mph - N/A   Overcast
11:30 PM 80.6 °F 85.4 °F 73.4 °F 79% 29.83 in 4.3 mi West 12.7 mph - N/A   Overcast